OCN23F EDDF-LEIB

Flight info

Callsign OCN23F
Flight time 2h 6m
Altitude 35000
Route ANEKI2L ANEKI Y163 HERBI Y164 MOPAN DCT LUTIX DCT BENOT DCT NEMOS DCT GEVEA DCT INCUS DCT BALSI DCT RETNO/N0452F370 DCT TUPOX DCT MTG DCT DIVKO DCT VATIR DCT PIVUS DCT SULID DCT DIMIB DCT POS
Aircraft A320/M-SDE3FGHIRWY/LB1

Departure

Time 2026-05-06 06:52
Airport Frankfurt Main Airport (EDDF)

Arrival

Time 2026-05-06 08:59
Airport Ibiza Airport (LEIB)
Time Latitude Longitude Altitude Speed Heading
2026-05-06 06:23 50.03630 8.53872 345 ft 0 kts 159°
2026-05-06 06:27 50.03629 8.53872 345 ft 0 kts 159°
2026-05-06 06:48 50.03596 8.53892 339 ft 10 kts 160°
2026-05-06 06:48 50.03543 8.53837 337 ft 11 kts 244°
2026-05-06 06:48 50.03515 8.53716 335 ft 13 kts 249°
2026-05-06 06:49 50.03481 8.53579 338 ft 14 kts 249°
2026-05-06 06:49 50.03444 8.53424 334 ft 16 kts 250°
2026-05-06 06:49 50.03404 8.53255 333 ft 18 kts 249°
2026-05-06 06:49 50.03359 8.53067 333 ft 19 kts 249°
2026-05-06 06:50 50.03312 8.52870 334 ft 16 kts 250°
2026-05-06 06:50 50.03279 8.52731 333 ft 13 kts 250°
2026-05-06 06:50 50.03256 8.52601 331 ft 12 kts 222°
2026-05-06 06:50 50.03230 8.52595 334 ft 0 kts 179°
2026-05-06 06:51 50.03229 8.52595 334 ft 2 kts 179°
2026-05-06 06:52 50.02965 8.52598 335 ft 72 kts 180°
2026-05-06 06:52 50.02263 8.52604 333 ft 127 kts 179°
2026-05-06 06:52 50.01226 8.52611 371 ft 166 kts 180°
2026-05-06 06:52 50.00086 8.52644 1033 ft 163 kts 180°
2026-05-06 06:53 49.98944 8.52712 1638 ft 170 kts 182°
2026-05-06 06:53 49.97691 8.52793 1965 ft 189 kts 181°
2026-05-06 06:53 49.96304 8.52884 2274 ft 210 kts 182°
2026-05-06 06:53 49.94794 8.52986 2953 ft 221 kts 182°
2026-05-06 06:54 49.93248 8.53095 3764 ft 223 kts 181°
2026-05-06 06:54 49.91685 8.53207 4512 ft 227 kts 181°
2026-05-06 06:54 49.90092 8.53318 5228 ft 231 kts 181°
2026-05-06 06:54 49.88481 8.53432 5990 ft 233 kts 181°
2026-05-06 06:55 49.86863 8.53543 6731 ft 234 kts 181°
2026-05-06 06:55 49.85228 8.53655 7408 ft 236 kts 181°
2026-05-06 06:55 49.83576 8.53769 8096 ft 239 kts 181°
2026-05-06 06:55 49.81931 8.53883 8804 ft 241 kts 181°
2026-05-06 06:56 49.80247 8.54000 9512 ft 244 kts 180°
2026-05-06 06:56 49.78546 8.54116 10173 ft 246 kts 181°
2026-05-06 06:56 49.76830 8.53974 10710 ft 252 kts 187°
2026-05-06 06:56 49.75008 8.53727 10955 ft 274 kts 187°
2026-05-06 06:57 49.73027 8.53460 11149 ft 297 kts 187°
2026-05-06 06:57 49.70882 8.53169 11341 ft 320 kts 187°
2026-05-06 06:57 49.68625 8.52864 11855 ft 330 kts 187°
2026-05-06 06:57 49.66324 8.52560 12535 ft 334 kts 187°
2026-05-06 06:58 49.64004 8.52257 13237 ft 336 kts 187°
2026-05-06 06:58 49.61667 8.51953 13894 ft 338 kts 187°
2026-05-06 06:58 49.59310 8.51646 14489 ft 341 kts 186°
2026-05-06 06:58 49.56932 8.51335 15066 ft 345 kts 186°
2026-05-06 06:59 49.54528 8.51019 15641 ft 348 kts 186°
2026-05-06 06:59 49.52098 8.50701 16211 ft 352 kts 186°
2026-05-06 06:59 49.49649 8.50382 16774 ft 355 kts 186°
2026-05-06 06:59 49.47170 8.50055 17329 ft 359 kts 186°
2026-05-06 07:00 49.44671 8.49726 17876 ft 362 kts 186°
2026-05-06 07:00 49.42146 8.49397 18378 ft 366 kts 186°
2026-05-06 07:00 49.39602 8.49067 18871 ft 368 kts 186°
2026-05-06 07:00 49.37042 8.48734 19375 ft 370 kts 186°
2026-05-06 07:01 49.34468 8.48398 19874 ft 372 kts 186°
2026-05-06 07:01 49.31918 8.48066 20363 ft 374 kts 187°
2026-05-06 07:01 49.29319 8.47731 20852 ft 376 kts 187°
2026-05-06 07:01 49.26709 8.47396 21335 ft 378 kts 187°
2026-05-06 07:02 49.24082 8.47053 21813 ft 380 kts 187°
2026-05-06 07:02 49.21446 8.46706 22270 ft 381 kts 187°
2026-05-06 07:02 49.18796 8.46357 22727 ft 383 kts 188°
2026-05-06 07:02 49.16130 8.46009 23172 ft 386 kts 188°
2026-05-06 07:03 49.13449 8.45665 23572 ft 388 kts 188°
2026-05-06 07:03 49.10758 8.45317 23970 ft 389 kts 188°
2026-05-06 07:03 49.08057 8.44967 24378 ft 389 kts 188°
2026-05-06 07:03 49.05385 8.44417 24776 ft 387 kts 195°
2026-05-06 07:04 49.02759 8.43499 25169 ft 387 kts 195°
2026-05-06 07:04 49.00132 8.42577 25553 ft 388 kts 195°
2026-05-06 07:04 48.97501 8.41658 25969 ft 388 kts 195°
2026-05-06 07:04 48.94872 8.40742 26374 ft 388 kts 195°
2026-05-06 07:05 48.92244 8.39826 26757 ft 388 kts 195°
2026-05-06 07:05 48.89607 8.38912 27135 ft 389 kts 195°
2026-05-06 07:05 48.86965 8.37999 27509 ft 390 kts 195°
2026-05-06 07:05 48.84320 8.37085 27876 ft 390 kts 195°
2026-05-06 07:06 48.81672 8.36169 28259 ft 391 kts 195°
2026-05-06 07:06 48.79023 8.35251 28607 ft 391 kts 195°
2026-05-06 07:06 48.76364 8.34318 28943 ft 392 kts 195°
2026-05-06 07:06 48.73740 8.33367 29276 ft 393 kts 195°
2026-05-06 07:07 48.71082 8.32388 29605 ft 394 kts 195°
2026-05-06 07:07 48.68418 8.31406 29882 ft 395 kts 195°
2026-05-06 07:07 48.65742 8.30423 30099 ft 397 kts 195°
2026-05-06 07:07 48.63058 8.29441 30299 ft 399 kts 195°
2026-05-06 07:08 48.60353 8.28455 30494 ft 401 kts 195°
2026-05-06 07:08 48.57641 8.27467 30768 ft 401 kts 195°
2026-05-06 07:08 48.54925 8.26484 31055 ft 401 kts 195°
2026-05-06 07:08 48.52211 8.25505 31317 ft 402 kts 195°
2026-05-06 07:09 48.49487 8.24518 31563 ft 403 kts 195°
2026-05-06 07:09 48.46763 8.23526 31830 ft 403 kts 195°
2026-05-06 07:09 48.44034 8.22526 32106 ft 404 kts 195°
2026-05-06 07:09 48.41303 8.21522 32375 ft 404 kts 195°
2026-05-06 07:10 48.38569 8.20516 32608 ft 405 kts 195°
2026-05-06 07:10 48.35825 8.19513 32860 ft 406 kts 195°
2026-05-06 07:10 48.33081 8.18513 33078 ft 406 kts 195°
2026-05-06 07:10 48.30327 8.17512 33322 ft 407 kts 195°
2026-05-06 07:11 48.27569 8.16512 33585 ft 408 kts 195°
2026-05-06 07:11 48.24835 8.15389 33822 ft 408 kts 201°
2026-05-06 07:11 48.22240 8.13684 34039 ft 408 kts 207°
2026-05-06 07:11 48.19696 8.11789 34251 ft 408 kts 207°
2026-05-06 07:12 48.17153 8.09903 34468 ft 408 kts 206°
2026-05-06 07:12 48.14608 8.08019 34675 ft 408 kts 207°
2026-05-06 07:12 48.12056 8.06136 34782 ft 409 kts 207°
2026-05-06 07:13 48.06969 8.02393 34814 ft 406 kts 207°
2026-05-06 07:13 48.01897 7.98664 34818 ft 406 kts 207°
2026-05-06 07:14 47.96822 7.94948 34820 ft 406 kts 207°
2026-05-06 07:14 47.91790 7.91263 34821 ft 405 kts 207°
2026-05-06 07:15 47.86737 7.87561 34826 ft 405 kts 207°
2026-05-06 07:15 47.81682 7.83875 34824 ft 404 kts 207°
2026-05-06 07:16 47.76628 7.80202 34834 ft 404 kts 207°
2026-05-06 07:16 47.71574 7.76536 34838 ft 403 kts 207°
2026-05-06 07:17 47.66546 7.72890 34848 ft 402 kts 207°
2026-05-06 07:17 47.61525 7.69260 34851 ft 401 kts 207°
2026-05-06 07:18 47.56514 7.65651 34848 ft 400 kts 207°
2026-05-06 07:18 47.51515 7.62048 34858 ft 399 kts 206°
2026-05-06 07:19 47.46539 7.58475 34862 ft 397 kts 206°
2026-05-06 07:19 47.42419 7.55525 34859 ft 395 kts 206°
2026-05-06 07:20 47.37440 7.51971 34852 ft 394 kts 206°
2026-05-06 07:20 47.32508 7.48444 34848 ft 393 kts 206°
2026-05-06 07:21 47.27616 7.44953 34861 ft 393 kts 206°
2026-05-06 07:21 47.22689 7.41444 34843 ft 394 kts 206°
2026-05-06 07:22 47.17788 7.37733 34828 ft 394 kts 214°
2026-05-06 07:22 47.13848 7.32165 34832 ft 396 kts 229°
2026-05-06 07:23 47.10448 7.25865 34828 ft 396 kts 229°
2026-05-06 07:23 47.07003 7.19548 34824 ft 396 kts 229°
2026-05-06 07:24 47.03561 7.13235 34826 ft 396 kts 229°
2026-05-06 07:24 47.00111 7.06925 34825 ft 396 kts 229°
2026-05-06 07:25 46.96639 7.00588 34829 ft 396 kts 229°
2026-05-06 07:25 46.93193 6.94294 34847 ft 397 kts 229°
2026-05-06 07:26 46.89428 6.88518 34824 ft 395 kts 218°
2026-05-06 07:26 46.85159 6.83442 34818 ft 396 kts 218°
2026-05-06 07:27 46.80882 6.78361 34820 ft 397 kts 218°
2026-05-06 07:27 46.76597 6.73271 34808 ft 397 kts 218°
2026-05-06 07:28 46.72315 6.68195 34823 ft 396 kts 218°
2026-05-06 07:28 46.65895 6.60596 34831 ft 396 kts 218°
2026-05-06 07:29 46.61616 6.55540 34844 ft 396 kts 218°
2026-05-06 07:29 46.57340 6.50503 34843 ft 396 kts 217°
2026-05-06 07:30 46.53057 6.45478 34873 ft 396 kts 218°
2026-05-06 07:30 46.48765 6.40448 34841 ft 398 kts 218°
2026-05-06 07:31 46.44453 6.35394 34828 ft 399 kts 217°
2026-05-06 07:31 46.40124 6.30348 34842 ft 400 kts 217°
2026-05-06 07:32 46.35789 6.25301 34848 ft 400 kts 217°
2026-05-06 07:32 46.31454 6.20260 34858 ft 400 kts 217°
2026-05-06 07:33 46.27050 6.15360 34857 ft 399 kts 210°
2026-05-06 07:33 46.21912 6.12464 34847 ft 399 kts 192°
2026-05-06 07:34 46.16413 6.11241 34851 ft 400 kts 190°
2026-05-06 07:34 46.10906 6.10010 34891 ft 402 kts 191°
2026-05-06 07:35 46.08136 6.09387 35045 ft 404 kts 191°
2026-05-06 07:35 46.05351 6.08765 35204 ft 405 kts 191°
2026-05-06 07:35 46.02563 6.08147 35393 ft 406 kts 191°
2026-05-06 07:35 45.99765 6.07527 35546 ft 407 kts 191°
2026-05-06 07:36 45.96966 6.06907 35773 ft 406 kts 191°
2026-05-06 07:36 45.94172 6.06288 35968 ft 407 kts 191°
2026-05-06 07:36 45.91371 6.05669 36163 ft 407 kts 191°
2026-05-06 07:36 45.88608 6.05061 36322 ft 408 kts 191°
2026-05-06 07:37 45.85761 6.04435 36483 ft 409 kts 191°
2026-05-06 07:37 45.82950 6.03819 36635 ft 409 kts 191°
2026-05-06 07:37 45.80170 6.03205 36772 ft 410 kts 191°
2026-05-06 07:37 45.77342 6.02577 36875 ft 412 kts 191°
2026-05-06 07:38 45.71621 6.01310 36880 ft 420 kts 191°
2026-05-06 07:38 45.65795 6.00028 36893 ft 427 kts 191°
2026-05-06 07:39 45.59900 5.98733 36889 ft 429 kts 191°
2026-05-06 07:39 45.53987 5.97446 36891 ft 430 kts 191°
2026-05-06 07:40 45.48074 5.96162 36886 ft 430 kts 191°
2026-05-06 07:40 45.42209 5.94560 36871 ft 429 kts 195°
2026-05-06 07:41 45.36399 5.92629 36883 ft 429 kts 195°
2026-05-06 07:41 45.30591 5.90706 36888 ft 428 kts 195°
2026-05-06 07:42 45.24768 5.88877 36886 ft 429 kts 194°
2026-05-06 07:42 45.18937 5.87089 36875 ft 429 kts 194°
2026-05-06 07:43 45.13109 5.85295 36895 ft 429 kts 195°
2026-05-06 07:43 45.07287 5.83503 36886 ft 428 kts 195°
2026-05-06 07:44 45.01465 5.81707 36881 ft 428 kts 195°
2026-05-06 07:44 44.95647 5.79908 36894 ft 428 kts 195°
2026-05-06 07:45 44.89819 5.78112 36896 ft 428 kts 195°
2026-05-06 07:45 44.83997 5.76327 36888 ft 428 kts 195°
2026-05-06 07:46 44.78214 5.74555 36903 ft 428 kts 195°
2026-05-06 07:46 44.72399 5.72786 36908 ft 428 kts 195°
2026-05-06 07:47 44.66577 5.71019 36943 ft 428 kts 195°
2026-05-06 07:47 44.60749 5.69245 36930 ft 428 kts 195°
2026-05-06 07:48 44.54923 5.67466 36926 ft 429 kts 195°
2026-05-06 07:48 44.49092 5.65697 36921 ft 429 kts 195°
2026-05-06 07:49 44.43261 5.63940 36910 ft 429 kts 195°
2026-05-06 07:49 44.37461 5.62051 36909 ft 426 kts 202°
2026-05-06 07:50 44.31960 5.59048 36906 ft 425 kts 204°
2026-05-06 07:50 44.26459 5.56020 36890 ft 425 kts 204°
2026-05-06 07:51 44.20947 5.52999 36901 ft 426 kts 204°
2026-05-06 07:51 44.15432 5.49996 36904 ft 426 kts 204°
2026-05-06 07:52 44.09909 5.46995 36916 ft 426 kts 204°
2026-05-06 07:52 44.04388 5.43999 36916 ft 426 kts 204°
2026-05-06 07:53 43.98877 5.41013 36917 ft 425 kts 204°
2026-05-06 07:53 43.93363 5.38022 36929 ft 425 kts 204°
2026-05-06 07:54 43.87856 5.35043 36915 ft 425 kts 204°
2026-05-06 07:54 43.82354 5.32082 36944 ft 424 kts 204°
2026-05-06 07:55 43.76845 5.29117 36932 ft 425 kts 204°
2026-05-06 07:55 43.71336 5.26148 36927 ft 425 kts 204°
2026-05-06 07:56 43.65826 5.23187 36921 ft 425 kts 204°
2026-05-06 07:56 43.60315 5.20236 36925 ft 424 kts 204°
2026-05-06 07:57 43.54812 5.17299 36927 ft 424 kts 204°
2026-05-06 07:57 43.49347 5.14385 36917 ft 424 kts 204°
2026-05-06 07:58 43.43815 5.11441 36922 ft 423 kts 204°
2026-05-06 07:58 43.38424 5.08373 36921 ft 420 kts 212°
2026-05-06 07:59 43.33594 5.03928 36920 ft 418 kts 216°
2026-05-06 07:59 43.28807 4.99408 36903 ft 417 kts 216°
2026-05-06 08:00 43.24016 4.94912 36943 ft 417 kts 217°
2026-05-06 08:00 43.19220 4.90427 36933 ft 418 kts 217°
2026-05-06 08:01 43.14420 4.85932 36932 ft 418 kts 217°
2026-05-06 08:01 43.09616 4.81438 36916 ft 418 kts 217°
2026-05-06 08:02 43.04767 4.77051 36933 ft 419 kts 212°
2026-05-06 08:02 42.99667 4.73181 36943 ft 419 kts 212°
2026-05-06 08:03 42.94568 4.69314 36946 ft 419 kts 212°
2026-05-06 08:03 42.89464 4.65452 36936 ft 419 kts 212°
2026-05-06 08:04 42.84365 4.61600 36951 ft 419 kts 212°
2026-05-06 08:04 42.80129 4.58399 36956 ft 419 kts 212°
2026-05-06 08:05 42.74195 4.53937 36966 ft 420 kts 212°
2026-05-06 08:05 42.69911 4.50723 36959 ft 420 kts 212°
2026-05-06 08:06 42.64788 4.46880 36958 ft 420 kts 212°
2026-05-06 08:06 42.59666 4.43040 36956 ft 421 kts 212°
2026-05-06 08:07 42.54536 4.39210 36963 ft 421 kts 212°
2026-05-06 08:07 42.49401 4.35384 36955 ft 421 kts 212°
2026-05-06 08:08 42.44270 4.31571 36970 ft 420 kts 212°
2026-05-06 08:08 42.39180 4.27788 36974 ft 420 kts 212°
2026-05-06 08:09 42.34027 4.23965 36977 ft 419 kts 212°
2026-05-06 08:09 42.28953 4.20210 36973 ft 418 kts 212°
2026-05-06 08:10 42.23846 4.16438 36963 ft 419 kts 212°
2026-05-06 08:10 42.18735 4.12658 36962 ft 419 kts 212°
2026-05-06 08:11 42.13614 4.08893 36963 ft 420 kts 212°
2026-05-06 08:11 42.08487 4.05134 36951 ft 420 kts 212°
2026-05-06 08:12 42.03355 4.01373 36975 ft 420 kts 212°
2026-05-06 08:12 41.98227 3.97625 36965 ft 420 kts 212°
2026-05-06 08:13 41.93091 3.93878 36972 ft 420 kts 212°
2026-05-06 08:13 41.87920 3.90244 36955 ft 420 kts 210°
2026-05-06 08:14 41.82684 3.86774 36975 ft 419 kts 210°
2026-05-06 08:14 41.77452 3.83324 36977 ft 419 kts 210°
2026-05-06 08:15 41.72244 3.79847 37003 ft 418 kts 210°
2026-05-06 08:15 41.67042 3.76360 36969 ft 418 kts 210°
2026-05-06 08:16 41.61833 3.72867 36973 ft 419 kts 210°
2026-05-06 08:16 41.56625 3.69389 36971 ft 419 kts 210°
2026-05-06 08:17 41.51404 3.65927 36968 ft 419 kts 210°
2026-05-06 08:17 41.46188 3.62457 36957 ft 418 kts 210°
2026-05-06 08:18 41.40979 3.58997 36974 ft 418 kts 210°
2026-05-06 08:18 41.35773 3.55551 36978 ft 418 kts 210°
2026-05-06 08:19 41.30568 3.52121 36988 ft 418 kts 210°
2026-05-06 08:19 41.25363 3.48697 36973 ft 417 kts 210°
2026-05-06 08:20 41.20158 3.45271 36991 ft 417 kts 209°
2026-05-06 08:20 41.14536 3.43082 36988 ft 425 kts 196°
2026-05-06 08:21 41.08734 3.41558 36985 ft 425 kts 196°
2026-05-06 08:21 41.02930 3.40041 36967 ft 425 kts 196°
2026-05-06 08:22 40.97128 3.38517 36975 ft 425 kts 196°
2026-05-06 08:22 40.91372 3.36992 36983 ft 425 kts 196°
2026-05-06 08:23 40.85576 3.35466 36958 ft 425 kts 196°
2026-05-06 08:23 40.79739 3.33940 36969 ft 425 kts 196°
2026-05-06 08:24 40.73937 3.32427 36978 ft 425 kts 196°
2026-05-06 08:24 40.68140 3.30916 36984 ft 425 kts 196°
2026-05-06 08:25 40.62378 3.29419 36985 ft 425 kts 196°
2026-05-06 08:25 40.56539 3.27908 36985 ft 425 kts 196°
2026-05-06 08:26 40.50777 3.26409 36988 ft 425 kts 196°
2026-05-06 08:26 40.44977 3.24894 36989 ft 425 kts 196°
2026-05-06 08:27 40.39179 3.23396 36954 ft 425 kts 196°
2026-05-06 08:27 40.33371 3.21896 36966 ft 425 kts 196°
2026-05-06 08:28 40.27559 3.20400 36974 ft 426 kts 196°
2026-05-06 08:28 40.21749 3.18891 36980 ft 426 kts 196°
2026-05-06 08:29 40.15930 3.17391 36953 ft 426 kts 196°
2026-05-06 08:29 40.10104 3.15901 36963 ft 427 kts 196°
2026-05-06 08:30 40.04273 3.14413 36970 ft 427 kts 196°
2026-05-06 08:30 39.98438 3.12910 36959 ft 427 kts 196°
2026-05-06 08:31 39.92672 3.11141 36962 ft 422 kts 205°
2026-05-06 08:31 39.87511 3.07661 36965 ft 418 kts 213°
2026-05-06 08:32 39.82439 3.03957 36979 ft 418 kts 213°
2026-05-06 08:32 39.77354 3.00259 36981 ft 419 kts 213°
2026-05-06 08:33 39.72268 2.96568 36954 ft 419 kts 213°
2026-05-06 08:33 39.67168 2.92875 36977 ft 420 kts 213°
2026-05-06 08:34 39.59503 2.87338 36983 ft 421 kts 213°
2026-05-06 08:35 39.54389 2.83649 36968 ft 421 kts 213°
2026-05-06 08:35 39.49262 2.79962 36950 ft 421 kts 213°
2026-05-06 08:36 39.44242 2.76093 36628 ft 416 kts 221°
2026-05-06 08:36 39.42138 2.73605 36278 ft 404 kts 230°
2026-05-06 08:36 39.40374 2.70831 36023 ft 396 kts 233°
2026-05-06 08:36 39.38666 2.68054 35772 ft 394 kts 233°
2026-05-06 08:37 39.36942 2.65308 35545 ft 393 kts 232°
2026-05-06 08:37 39.35206 2.62576 34940 ft 395 kts 232°
2026-05-06 08:37 39.33457 2.59828 34343 ft 394 kts 232°
2026-05-06 08:37 39.31748 2.57140 33760 ft 391 kts 232°
2026-05-06 08:38 39.30010 2.54400 33213 ft 387 kts 232°
2026-05-06 08:38 39.28314 2.51725 32675 ft 383 kts 232°
2026-05-06 08:38 39.26637 2.49079 32146 ft 379 kts 232°
2026-05-06 08:38 39.24973 2.46451 31626 ft 376 kts 232°
2026-05-06 08:39 39.23324 2.43844 31106 ft 373 kts 232°
2026-05-06 08:39 39.21712 2.41296 30607 ft 370 kts 232°
2026-05-06 08:39 39.20065 2.38700 30094 ft 368 kts 231°
2026-05-06 08:39 39.18472 2.36198 29553 ft 365 kts 231°
2026-05-06 08:40 39.16869 2.33684 29066 ft 360 kts 231°
2026-05-06 08:40 39.15293 2.31210 28589 ft 355 kts 231°
2026-05-06 08:40 39.13734 2.28766 28147 ft 351 kts 232°
2026-05-06 08:40 39.12176 2.26317 27675 ft 347 kts 232°
2026-05-06 08:41 39.10658 2.23931 27231 ft 342 kts 232°
2026-05-06 08:41 39.09173 2.21607 26801 ft 338 kts 232°
2026-05-06 08:41 39.07668 2.19256 26301 ft 335 kts 232°
2026-05-06 08:41 39.06165 2.16904 25400 ft 345 kts 232°
2026-05-06 08:42 39.04620 2.14483 24520 ft 354 kts 232°
2026-05-06 08:42 39.03035 2.12004 23639 ft 363 kts 232°
2026-05-06 08:42 39.01425 2.09494 23022 ft 362 kts 232°
2026-05-06 08:42 38.99835 2.07017 22512 ft 357 kts 232°
2026-05-06 08:43 38.98272 2.04585 21659 ft 350 kts 231°
2026-05-06 08:43 38.96726 2.02186 20729 ft 347 kts 231°
2026-05-06 08:43 38.95216 1.99839 19863 ft 344 kts 231°
2026-05-06 08:43 38.93700 1.97484 19007 ft 341 kts 231°
2026-05-06 08:44 38.92177 1.95116 18167 ft 338 kts 231°
2026-05-06 08:44 38.90874 1.92637 17260 ft 334 kts 243°
2026-05-06 08:44 38.90098 1.89857 16430 ft 330 kts 254°
2026-05-06 08:44 38.89529 1.87057 15608 ft 327 kts 254°
2026-05-06 08:45 38.88957 1.84249 14819 ft 323 kts 255°
2026-05-06 08:45 38.88394 1.81481 14059 ft 319 kts 255°
2026-05-06 08:45 38.87835 1.78749 13248 ft 315 kts 255°
2026-05-06 08:45 38.87278 1.76044 12386 ft 312 kts 255°
2026-05-06 08:46 38.86724 1.73358 11550 ft 310 kts 255°
2026-05-06 08:46 38.86173 1.70693 10798 ft 307 kts 255°
2026-05-06 08:46 38.85636 1.68106 10361 ft 293 kts 255°
2026-05-06 08:46 38.85122 1.65632 9975 ft 281 kts 255°
2026-05-06 08:47 38.84628 1.63250 9598 ft 272 kts 255°
2026-05-06 08:47 38.84140 1.60898 9461 ft 274 kts 255°
2026-05-06 08:47 38.83649 1.58535 9108 ft 274 kts 255°
2026-05-06 08:47 38.83129 1.56144 8775 ft 275 kts 254°
2026-05-06 08:48 38.82612 1.53821 8444 ft 274 kts 254°
2026-05-06 08:48 38.82086 1.51476 8114 ft 274 kts 254°
2026-05-06 08:48 38.81554 1.49099 7780 ft 274 kts 254°
2026-05-06 08:48 38.81208 1.47548 7566 ft 273 kts 253°
2026-05-06 08:49 38.80518 1.44444 7136 ft 273 kts 253°
2026-05-06 08:49 38.79846 1.42172 6820 ft 273 kts 242°
2026-05-06 08:49 38.78954 1.40021 6527 ft 274 kts 241°
2026-05-06 08:49 38.78350 1.38565 6362 ft 274 kts 241°
2026-05-06 08:50 38.77165 1.35704 6023 ft 275 kts 241°
2026-05-06 08:50 38.76559 1.34244 5854 ft 274 kts 241°
2026-05-06 08:50 38.75679 1.32120 5592 ft 263 kts 241°
2026-05-06 08:50 38.74850 1.30118 5346 ft 248 kts 241°
2026-05-06 08:51 38.74051 1.28191 5090 ft 243 kts 241°
2026-05-06 08:51 38.73259 1.26280 4847 ft 243 kts 241°
2026-05-06 08:51 38.72465 1.24369 4592 ft 244 kts 241°
2026-05-06 08:51 38.71671 1.22467 4330 ft 242 kts 241°
2026-05-06 08:52 38.70876 1.20570 4084 ft 241 kts 241°
2026-05-06 08:52 38.70086 1.18687 3826 ft 240 kts 241°
2026-05-06 08:52 38.69294 1.16794 3573 ft 251 kts 242°
2026-05-06 08:52 38.68465 1.14756 3331 ft 257 kts 245°
2026-05-06 08:53 38.68100 1.12571 3098 ft 250 kts 275°
2026-05-06 08:53 38.68641 1.10544 3004 ft 239 kts 309°
2026-05-06 08:53 38.69850 1.09119 3013 ft 236 kts 332°
2026-05-06 08:53 38.71351 1.08327 3014 ft 233 kts 351°
2026-05-06 08:54 38.72945 1.08231 3012 ft 229 kts 10°
2026-05-06 08:54 38.74439 1.08803 3013 ft 226 kts 29°
2026-05-06 08:54 38.75700 1.09970 3010 ft 223 kts 48°
2026-05-06 08:54 38.76584 1.11580 3015 ft 222 kts 63°
2026-05-06 08:55 38.77313 1.13333 3011 ft 223 kts 63°
2026-05-06 08:55 38.78045 1.15090 3006 ft 224 kts 62°
2026-05-06 08:55 38.78780 1.16851 3008 ft 225 kts 62°
2026-05-06 08:55 38.79508 1.18595 2926 ft 218 kts 62°
2026-05-06 08:56 38.80215 1.20294 2689 ft 215 kts 62°
2026-05-06 08:56 38.80911 1.21965 2413 ft 209 kts 62°
2026-05-06 08:56 38.81582 1.23577 2141 ft 200 kts 62°
2026-05-06 08:56 38.82213 1.25092 1879 ft 185 kts 62°
2026-05-06 08:57 38.82797 1.26496 1665 ft 172 kts 61°
2026-05-06 08:57 38.83329 1.27776 1445 ft 154 kts 62°
2026-05-06 08:57 38.83811 1.28938 1232 ft 145 kts 62°
2026-05-06 08:57 38.84300 1.30091 995 ft 148 kts 61°
2026-05-06 08:58 38.84790 1.31242 795 ft 146 kts 63°
2026-05-06 08:58 38.85262 1.32386 618 ft 145 kts 62°
2026-05-06 08:58 38.85725 1.33507 416 ft 139 kts 62°
2026-05-06 08:58 38.86172 1.34595 243 ft 138 kts 63°
2026-05-06 08:59 38.86605 1.35675 89 ft 135 kts 62°
2026-05-06 08:59 38.87031 1.36697 9 ft 116 kts 61°
2026-05-06 08:59 38.87268 1.37274 11 ft 33 kts 62°
2026-05-06 08:59 38.87400 1.37456 10 ft 21 kts 35°
2026-05-06 09:00 38.87511 1.37547 10 ft 17 kts 26°
2026-05-06 09:00 38.87541 1.37491 10 ft 6 kts 244°
2026-05-06 09:00 38.87524 1.37445 9 ft 5 kts 243°
2026-05-06 09:00 38.87509 1.37407 9 ft 4 kts 243°
2026-05-06 09:01 38.87497 1.37377 9 ft 4 kts 241°
2026-05-06 09:01 38.87469 1.37310 11 ft 14 kts 242°
2026-05-06 09:01 38.87420 1.37191 10 ft 14 kts 242°
2026-05-06 09:01 38.87376 1.37085 10 ft 13 kts 242°
2026-05-06 09:02 38.87335 1.36987 10 ft 12 kts 242°
2026-05-06 09:02 38.87299 1.36900 9 ft 10 kts 242°
2026-05-06 09:02 38.87331 1.36844 9 ft 8 kts 333°
2026-05-06 09:02 38.87378 1.36814 8 ft 7 kts 333°
2026-05-06 09:03 38.87418 1.36788 8 ft 6 kts 335°
2026-05-06 09:03 38.87470 1.36781 8 ft 9 kts 13°
2026-05-06 09:03 38.87502 1.36793 8 ft 3 kts 17°
2026-05-06 09:03 38.87508 1.36796 10 ft 0 kts 17°